Location: Limoges
(45.8500°N, 1.2500°E)
Time: 00:13:31
(UTC+02:00)

ISS - Pass Details

Date: 31 May 2020
Orbit: 419 x 420 km, 51.6° (Epoch: 19 September)

Event Time Altitude Azimuth Distance (km) Brightness Sun altitude
Rises 22:12:09 0° 297° (WNW) 2,379 2.1 -5.7°
Reaches altitude 10° 22:14:16 10° 297° (WNW) 1,513 0.7 -6.0°
Maximum altitude 22:17:40 86° 210° (SSW) 430 -3.7 -6.4°
Drops below altitude 10° 22:21:04 10° 121° (ESE) 1,511 -1.6 -6.9°
Enters shadow 22:21:18 - 121° (ESE) 1,605 -1.5 -6.9°
